Simultaneous Nadir Overpasses (SNOs) Predictions

Prediction of SNOs between LANDSAT-8 and METOP-B Satellite Orbit:

Table of predicted SNOs for the next 14.0 days since TLE Epoch: 5/17/2019
Index Date (LANDSAT-8) Time (LANDSAT-8) Lat,Lon (LANDSAT-8) SZA (LANDSAT-8 ) Date (METOP-B) Time (METOP-B) Lat,Lon (METOP-B) SZA (METOP-B ) Distance(km) Time Diff (sec)
1 05/17/2019 14:37:25 -81.15,-178.90 115.91 05/17/2019 14:37:11 -81.15,-178.87 115.92 0.57 14
2 05/17/2019 15:26:51 81.16, -11.23 64.09 05/17/2019 15:27:51 81.16, -11.37 64.10 2.41 60
3 05/20/2019 10:11:42 -81.15,-112.46 116.52 05/20/2019 10:11:34 -81.15,-112.42 116.52 0.66 8
4 05/20/2019 11:01:08 81.15, 55.19 63.48 05/20/2019 11:02:14 81.16, 55.04 63.50 2.51 66
5 05/23/2019 05:45:59 -81.15, -46.06 117.09 05/23/2019 05:45:57 -81.15, -46.00 117.08 1.02 2
6 05/23/2019 06:35:24 81.17, 121.94 62.96 05/23/2019 06:36:36 81.17, 121.81 62.98 2.29 72
7 05/26/2019 00:30:50 81.12,-147.76 62.32 05/26/2019 00:29:41 81.12,-147.84 62.29 1.30 69
8 05/26/2019 01:20:16 -81.15, 20.32 117.62 05/26/2019 01:20:20 -81.15, 20.41 117.61 1.71 4
9 05/28/2019 20:05:05 81.14, -81.07 61.88 05/28/2019 20:04:02 81.13, -81.10 61.85 0.60 63




NCC Satellite Simultaneous Nadir Overpasses (SNOs) Prediction Service
